Time,TemperatureF,DewpointF,PressureIn,WindDirection,WindDirectionDegrees,WindSpeedMPH,WindSpeedGustMPH,Humidity,HourlyPrecipIn,Conditions,Clouds,dailyrainin,SoftwareType,DateUTC
2013-05-09 00:00:00,66.4,64.0,30.01,SE,136,0.0,4.0,92,0.00,,,0.00,weatherlink.com 1.10,2013-05-09 05:00:00,
2013-05-09 00:15:00,66.5,64.0,30.02,SE,134,1.0,3.0,92,0.00,,,0.00,weatherlink.com 1.10,2013-05-09 05:15:00,
2013-05-09 00:30:00,66.3,64.0,30.02,ESE,122,0.0,4.0,92,0.00,,,0.00,weatherlink.com 1.10,2013-05-09 05:30:00,
2013-05-09 00:45:00,65.9,64.0,30.01,SSE,160,0.0,4.0,93,0.00,,,0.00,weatherlink.com 1.10,2013-05-09 05:45:00,
2013-05-09 01:00:00,65.5,64.0,30.00,SSE,162,0.0,2.0,93,0.00,,,0.00,weatherlink.com 1.10,2013-05-09 06:00:00,
2013-05-09 01:15:00,65.3,64.0,30.00,SE,135,0.0,1.0,94,0.00,,,0.00,weatherlink.com 1.10,2013-05-09 06:15:00,
2013-05-09 01:30:00,65.2,64.0,30.00,SE,146,0.0,1.0,94,0.00,,,0.00,weatherlink.com 1.10,2013-05-09 06:30:00,
2013-05-09 01:45:00,65.1,63.0,30.00,SE,146,0.0,1.0,94,0.00,,,0.00,weatherlink.com 1.10,2013-05-09 06:45:00,
2013-05-09 02:00:00,65.1,64.0,29.99,SE,130,0.0,1.0,95,0.00,,,0.00,weatherlink.com 1.10,2013-05-09 07:00:00,
2013-05-09 02:16:00,65.2,64.0,29.99,SSE,165,0.0,2.0,95,0.00,,,0.00,weatherlink.com 1.10,2013-05-09 07:16:00,
2013-05-09 02:31:00,65.0,64.0,29.99,SSE,166,0.0,1.0,95,0.00,,,0.00,weatherlink.com 1.10,2013-05-09 07:31:00,
2013-05-09 02:46:00,64.5,63.0,29.99,SSE,166,0.0,0.0,95,0.00,,,0.00,weatherlink.com 1.10,2013-05-09 07:46:00,
2013-05-09 03:01:00,63.8,62.0,29.99,SSE,166,0.0,0.0,95,0.00,,,0.00,weatherlink.com 1.10,2013-05-09 08:01:00,
2013-05-09 03:16:00,63.9,63.0,29.99,SSE,166,0.0,0.0,95,0.00,,,0.00,weatherlink.com 1.10,2013-05-09 08:16:00,
2013-05-09 03:31:00,64.1,63.0,29.99,SSE,166,0.0,0.0,95,0.00,,,0.00,weatherlink.com 1.10,2013-05-09 08:31:00,
2013-05-09 03:46:00,64.2,63.0,29.99,SSE,166,0.0,0.0,95,0.00,,,0.00,weatherlink.com 1.10,2013-05-09 08:46:00,
2013-05-09 04:01:00,63.8,62.0,29.99,SSE,166,0.0,0.0,95,0.00,,,0.00,weatherlink.com 1.10,2013-05-09 09:01:00,
2013-05-09 04:16:00,63.7,62.0,30.00,SSE,166,0.0,0.0,95,0.00,,,0.00,weatherlink.com 1.10,2013-05-09 09:16:00,
2013-05-09 04:31:00,63.3,62.0,29.99,SSE,166,0.0,0.0,95,0.00,,,0.00,weatherlink.com 1.10,2013-05-09 09:31:00,
2013-05-09 04:46:00,63.2,62.0,29.99,SSE,166,0.0,1.0,96,0.00,,,0.00,weatherlink.com 1.10,2013-05-09 09:46:00,
2013-05-09 05:01:00,63.1,62.0,29.99,SSE,166,0.0,0.0,96,0.00,,,0.00,weatherlink.com 1.10,2013-05-09 10:01:00,
2013-05-09 05:16:00,63.3,62.0,29.99,SSE,166,0.0,1.0,96,0.00,,,0.00,weatherlink.com 1.10,2013-05-09 10:16:00,
2013-05-09 05:31:00,63.9,63.0,29.99,East,99,0.0,1.0,96,0.00,,,0.00,weatherlink.com 1.10,2013-05-09 10:31:00,
2013-05-09 05:46:00,64.6,64.0,29.99,East,99,0.0,1.0,96,0.00,,,0.00,weatherlink.com 1.10,2013-05-09 10:46:00,
2013-05-09 06:01:00,65.2,64.0,29.99,East,98,0.0,1.0,96,0.00,,,0.00,weatherlink.com 1.10,2013-05-09 11:01:00,
2013-05-09 06:16:00,65.2,64.0,30.00,East,96,0.0,1.0,96,0.00,,,0.00,weatherlink.com 1.10,2013-05-09 11:16:00,
2013-05-09 06:31:00,65.5,64.0,30.00,ESE,104,0.0,1.0,96,0.00,,,0.00,weatherlink.com 1.10,2013-05-09 11:31:00,
2013-05-09 06:46:00,65.8,65.0,30.01,East,99,0.0,1.0,96,0.00,,,0.00,weatherlink.com 1.10,2013-05-09 11:46:00,
2013-05-09 07:01:00,66.3,65.0,30.01,East,99,0.0,1.0,96,0.00,,,0.00,weatherlink.com 1.10,2013-05-09 12:01:00,
2013-05-09 07:16:00,66.9,66.0,30.01,East,101,1.0,1.0,96,0.00,,,0.00,weatherlink.com 1.10,2013-05-09 12:16:00,
2013-05-09 07:31:00,67.7,67.0,30.02,ESE,115,0.0,1.0,96,0.00,,,0.00,weatherlink.com 1.10,2013-05-09 12:31:00,
2013-05-09 07:46:00,68.2,67.0,30.02,East,100,0.0,2.0,96,0.00,,,0.00,weatherlink.com 1.10,2013-05-09 12:46:00,
2013-05-09 08:01:00,68.8,68.0,30.02,East,92,0.0,4.0,96,0.00,,,0.00,weatherlink.com 1.10,2013-05-09 13:01:00,
2013-05-09 08:16:00,69.4,68.0,30.02,ESE,110,0.0,3.0,96,0.00,,,0.00,weatherlink.com 1.10,2013-05-09 13:16:00,
2013-05-09 08:31:00,70.4,69.0,30.03,ESE,119,1.0,2.0,96,0.00,,,0.00,weatherlink.com 1.10,2013-05-09 13:31:00,
2013-05-09 08:46:00,70.9,70.0,30.04,SW,218,0.0,4.0,95,0.00,,,0.00,weatherlink.com 1.10,2013-05-09 13:46:00,
2013-05-09 09:01:00,71.4,70.0,30.04,NNE,26,1.0,5.0,94,0.00,,,0.00,weatherlink.com 1.10,2013-05-09 14:01:00,
2013-05-09 09:16:00,72.2,70.0,30.05,ESE,121,0.0,6.0,93,0.00,,,0.00,weatherlink.com 1.10,2013-05-09 14:16:00,
2013-05-09 09:31:00,72.7,70.0,30.05,SSE,158,4.0,6.0,91,0.00,,,0.00,weatherlink.com 1.10,2013-05-09 14:31:00,
2013-05-09 09:46:00,73.4,70.0,30.05,SSE,148,2.0,6.0,89,0.00,,,0.00,weatherlink.com 1.10,2013-05-09 14:46:00,
2013-05-09 10:01:00,73.5,70.0,30.05,SE,127,4.0,8.0,88,0.00,,,0.00,weatherlink.com 1.10,2013-05-09 15:01:00,
2013-05-09 10:16:00,73.7,70.0,30.05,SE,146,3.0,9.0,88,0.00,,,0.00,weatherlink.com 1.10,2013-05-09 15:16:00,
2013-05-09 10:31:00,73.7,70.0,30.05,SSE,168,5.0,8.0,88,0.00,,,0.00,weatherlink.com 1.10,2013-05-09 15:31:00,
2013-05-09 10:46:00,73.2,70.0,30.06,SE,132,5.0,7.0,90,0.00,,,0.00,weatherlink.com 1.10,2013-05-09 15:46:00,
2013-05-09 11:01:00,72.9,70.0,30.06,SSE,153,0.0,8.0,91,0.00,,,0.00,weatherlink.com 1.10,2013-05-09 16:01:00,
2013-05-09 11:16:00,73.2,70.0,30.06,SE,125,0.0,8.0,90,0.00,,,0.00,weatherlink.com 1.10,2013-05-09 16:16:00,
2013-05-09 11:32:00,73.4,70.0,30.06,ESE,108,5.0,9.0,89,0.00,,,0.00,weatherlink.com 1.10,2013-05-09 16:32:00,
2013-05-09 11:47:00,73.9,70.0,30.05,SSE,158,3.0,11.0,88,0.00,,,0.00,weatherlink.com 1.10,2013-05-09 16:47:00,
2013-05-09 12:02:00,74.1,70.0,30.06,SSW,195,6.0,9.0,88,0.00,,,0.00,weatherlink.com 1.10,2013-05-09 17:02:00,
2013-05-09 12:17:00,74.1,70.0,30.06,SSE,151,5.0,9.0,88,0.00,,,0.00,weatherlink.com 1.10,2013-05-09 17:17:00,
2013-05-09 12:32:00,73.7,70.0,30.06,SE,146,6.0,8.0,89,0.00,,,0.00,weatherlink.com 1.10,2013-05-09 17:32:00,
2013-05-09 12:47:00,74.1,70.0,30.05,SSE,154,2.0,10.0,88,0.00,,,0.00,weatherlink.com 1.10,2013-05-09 17:47:00,
2013-05-09 13:02:00,75.2,71.0,30.05,South,178,6.0,9.0,86,0.00,,,0.00,weatherlink.com 1.10,2013-05-09 18:02:00,
2013-05-09 13:17:00,75.7,71.0,30.05,SSW,197,6.0,13.0,84,0.00,,,0.00,weatherlink.com 1.10,2013-05-09 18:17:00,
2013-05-09 13:32:00,75.9,71.0,30.04,South,170,8.0,12.0,84,0.00,,,0.00,weatherlink.com 1.10,2013-05-09 18:32:00,
2013-05-09 13:47:00,76.7,71.0,30.04,SE,143,6.0,12.0,82,0.00,,,0.00,weatherlink.com 1.10,2013-05-09 18:47:00,
2013-05-09 14:02:00,77.7,71.0,30.03,ESE,123,3.0,14.0,80,0.00,,,0.00,weatherlink.com 1.10,2013-05-09 19:02:00,
2013-05-09 14:17:00,77.8,71.0,30.03,South,181,12.0,14.0,79,0.00,,,0.00,weatherlink.com 1.10,2013-05-09 19:17:00,
2013-05-09 14:32:00,78.1,70.0,30.02,SSE,153,12.0,14.0,77,0.00,,,0.00,weatherlink.com 1.10,2013-05-09 19:32:00,
2013-05-09 14:47:00,78.8,70.0,30.01,SE,146,11.0,13.0,75,0.00,,,0.00,weatherlink.com 1.10,2013-05-09 19:47:00,
2013-05-09 15:02:00,78.6,71.0,30.00,South,179,7.0,11.0,77,0.00,,,0.00,weatherlink.com 1.10,2013-05-09 20:02:00,
2013-05-09 15:17:00,78.4,70.0,29.99,SSE,162,7.0,13.0,75,0.00,,,0.00,weatherlink.com 1.10,2013-05-09 20:17:00,
2013-05-09 15:32:00,78.5,70.0,29.99,SE,131,3.0,13.0,76,0.00,,,0.00,weatherlink.com 1.10,2013-05-09 20:32:00,
2013-05-09 15:47:00,77.9,69.0,29.99,SSE,164,5.0,12.0,75,0.00,,,0.00,weatherlink.com 1.10,2013-05-09 20:47:00,
2013-05-09 16:02:00,77.6,70.0,29.98,SE,141,9.0,14.0,76,0.00,,,0.00,weatherlink.com 1.10,2013-05-09 21:02:00,
2013-05-09 16:17:00,77.4,70.0,29.97,SE,135,5.0,13.0,78,0.00,,,0.00,weatherlink.com 1.10,2013-05-09 21:17:00,
2013-05-09 16:32:00,78.0,70.0,29.97,SSE,152,7.0,11.0,77,0.00,,,0.00,weatherlink.com 1.10,2013-05-09 21:32:00,
2013-05-09 16:47:00,77.7,70.0,29.96,SSW,200,8.0,13.0,76,0.00,,,0.00,weatherlink.com 1.10,2013-05-09 21:47:00,
2013-05-09 17:02:00,77.6,70.0,29.96,South,176,0.0,11.0,76,0.00,,,0.00,weatherlink.com 1.10,2013-05-09 22:02:00,
2013-05-09 17:17:00,77.2,69.0,29.95,SE,134,3.0,11.0,76,0.00,,,0.00,weatherlink.com 1.10,2013-05-09 22:17:00,
2013-05-09 17:32:00,77.0,69.0,29.96,South,170,5.0,12.0,77,0.00,,,0.00,weatherlink.com 1.10,2013-05-09 22:32:00,
2013-05-09 17:48:00,76.8,69.0,29.96,SE,132,3.0,6.0,78,0.00,,,0.00,weatherlink.com 1.10,2013-05-09 22:48:00,
2013-05-09 18:02:00,76.4,69.0,29.95,South,183,4.0,8.0,79,0.00,,,0.00,weatherlink.com 1.10,2013-05-09 23:02:00,
2013-05-09 18:17:00,76.2,70.0,29.95,SSE,156,4.0,8.0,81,0.00,,,0.00,weatherlink.com 1.10,2013-05-09 23:17:00,
2013-05-09 18:32:00,76.2,70.0,29.94,SE,132,1.0,8.0,82,0.00,,,0.00,weatherlink.com 1.10,2013-05-09 23:32:00,
2013-05-09 18:48:00,75.9,70.0,29.94,SSE,152,3.0,13.0,83,0.00,,,0.00,weatherlink.com 1.10,2013-05-09 23:48:00,
2013-05-09 19:03:00,75.6,71.0,29.93,SE,142,1.0,10.0,84,0.00,,,0.00,weatherlink.com 1.10,2013-05-10 00:03:00,
2013-05-09 19:18:00,75.4,71.0,29.93,ESE,122,4.0,12.0,85,0.00,,,0.00,weatherlink.com 1.10,2013-05-10 00:18:00,
2013-05-09 19:33:00,75.1,70.0,29.93,South,177,3.0,10.0,85,0.00,,,0.00,weatherlink.com 1.10,2013-05-10 00:33:00,
2013-05-09 19:48:00,74.9,71.0,29.93,SSE,160,7.0,9.0,86,0.00,,,0.00,weatherlink.com 1.10,2013-05-10 00:48:00,
2013-05-09 20:03:00,74.8,71.0,29.93,ESE,108,2.0,6.0,87,0.00,,,0.00,weatherlink.com 1.10,2013-05-10 01:03:00,
2013-05-09 20:18:00,74.7,71.0,29.94,SE,126,2.0,7.0,87,0.00,,,0.00,weatherlink.com 1.10,2013-05-10 01:18:00,
2013-05-09 20:33:00,74.7,71.0,29.92,ESE,121,3.0,8.0,87,0.00,,,0.00,weatherlink.com 1.10,2013-05-10 01:33:00,
2013-05-09 20:48:00,74.6,71.0,29.93,ESE,110,4.0,7.0,88,0.00,,,0.00,weatherlink.com 1.10,2013-05-10 01:48:00,
2013-05-09 21:03:00,74.5,71.0,29.93,SE,128,3.0,9.0,88,0.00,,,0.00,weatherlink.com 1.10,2013-05-10 02:03:00,
2013-05-09 21:18:00,74.5,71.0,29.93,South,179,1.0,6.0,88,0.00,,,0.00,weatherlink.com 1.10,2013-05-10 02:18:00,
2013-05-09 21:33:00,74.3,71.0,29.91,SE,143,1.0,10.0,88,0.00,,,0.00,weatherlink.com 1.10,2013-05-10 02:33:00,
2013-05-09 21:48:00,74.4,71.0,29.92,SE,137,4.0,11.0,88,0.00,,,0.00,weatherlink.com 1.10,2013-05-10 02:48:00,
2013-05-09 22:03:00,74.2,71.0,29.92,SSE,165,4.0,12.0,88,0.00,,,0.00,weatherlink.com 1.10,2013-05-10 03:03:00,
2013-05-09 22:18:00,74.2,71.0,29.93,SE,145,8.0,13.0,89,0.00,,,0.00,weatherlink.com 1.10,2013-05-10 03:18:00,
2013-05-09 22:33:00,74.3,71.0,29.93,SSE,155,6.0,14.0,88,0.00,,,0.00,weatherlink.com 1.10,2013-05-10 03:33:00,
2013-05-09 22:48:00,74.3,71.0,29.93,SSE,153,9.0,14.0,89,0.00,,,0.00,weatherlink.com 1.10,2013-05-10 03:48:00,
2013-05-09 23:03:00,74.3,71.0,29.93,South,179,6.0,23.0,90,0.00,,,0.00,weatherlink.com 1.10,2013-05-10 04:03:00,
2013-05-09 23:18:00,74.3,71.0,29.92,SSW,204,11.0,16.0,90,0.00,,,0.00,weatherlink.com 1.10,2013-05-10 04:18:00,
2013-05-09 23:33:00,74.3,71.0,29.91,South,170,6.0,20.0,90,0.00,,,0.00,weatherlink.com 1.10,2013-05-10 04:33:00,
2013-05-09 23:48:00,73.9,71.0,29.89,South,181,11.0,16.0,91,0.00,,,0.00,weatherlink.com 1.10,2013-05-10 04:48:00,